Probability
3 4 5 7 8 5 2 2 3 3 3 3 3 3 3 3 4 5 5 5 6 6 7 8 9 10 10 10 10 9 8 7 6 4 2 1 0 0 1 2 2 2 2
4 4 5 7 8 5 3 2 3 3 3 3 3 3 3 3 4 5 4 5 6 7 7 7 8 9 10 10 9 9 8 7 6 5 3 2 1 0 0 1 1 1 1
4 4 4 6 6 5 3 2 2 2 2 2 2 3 3 3 4 4 3 4 6 7 7 6 7 8 9 9 8 7 7 7 5 4 4 2 1 0 0 0 0 0 0
4 3 3 4 5 4 3 1 0 1 1 0 1 2 2 2 3 3 2 3 4 6 6 5 5 7 8 8 7 6 7 7 5 4 3 1 0 0 0 0 0 0 0
3 3 3 3 4 3 2 1 0 0 0 0 0 1 1 1 2 3 1 1 2 3 4 3 3 4 5 5 5 5 6 6 5 3 2 0 0 0 0 0 0 0 0
3 3 3 3 3 3 1 0 0 0 0 0 0 0 0 0 1 1 0 0 1 2 3 3 2 3 4 3 2 3 4 4 4 3 2 1 0 0 0 0 0 0 0
3 3 3 3 3 2 1 0 0 0 0 0 0 0 0 0 0 0 0 0 0 1 2 3 3 4 3 2 1 1 2 3 3 3 3 1 0 0 0 0 0 0 0
3 3 3 3 2 1 0 0 0 0 0 0 0 0 0 0 0 0 0 0 0 0 2 3 3 4 3 1 1 0 1 2 3 3 3 2 1 0 0 0 0 0 0
3 3 2 1 1 0 0 0 0 0 0 0 0 0 0 0 0 0 0 0 0 1 2 3 3 3 3 2 2 1 0 1 1 3 3 2 1 0 0 0 0 0 0
2 1 1 0 0 0 0 0 0 0 0 0 0 0 0 0 0 1 1 1 0 1 2 3 3 3 3 3 3 2 1 0 1 2 2 1 0 0 0 0 0 0 0
1 0 0 0 0 0 0 0 0 0 0 0 0 0 0 1 1 2 2 2 1 1 2 3 3 3 3 3 3 2 1 0 0 1 1 1 0 0 0 0 0 0 0
0 0 0 0 0 0 0 0 0 0 0 0 0 0 1 2 2 2 2 2 1 2 3 3 3 3 3 3 3 2 0 0 0 0 0 0 0 0 0 0 0 0 0
0 0 0 0 0 0 0 0 0 0 0 0 0 0 1 2 2 1 1 1 1 2 3 3 3 3 3 3 3 2 1 0 0 0 0 0 0 0 0 0 0 0 0
0 0 0 0 0 0 0 0 0 0 0 0 0 0 0 1 1 0 0 0 0 1 2 3 3 3 3 3 3 3 2 1 0 0 0 0 0 0 0 0 0 0 0
0 0 0 0 0 0 0 0 0 0 0 0 0 0 0 0 0 0 0 0 1 1 2 3 3 3 3 3 3 3 2 1 0 0 0 0 0 0 0 0 0 0 0
0 0 0 0 0 0 0 0 0 0 0 0 0 0 0 0 0 0 0 0 1 2 2 3 3 3 3 1 1 2 2 1 0 0 0 0 0 0 0 0 0 0 0
0 0 0 0 0 0 0 0 0 0 0 0 0 0 0 1 1 1 1 1 1 1 2 3 3 3 2 1 0 1 1 0 0 0 0 0 0 0 0 0 0 0 0
0 0 0 0 0 0 0 0 0 0 0 0 0 0 0 1 1 2 2 2 2 2 2 3 3 3 1 0 0 0 0 0 0 0 0 0 0 0 0 0 0 0 0
0 0 0 0 0 0 0 0 0 0 0 0 0 0 0 0 1 2 2 2 2 1 2 2 2 2 1 0 0 0 0 0 0 0 0 0 0 0 0 0 0 0 0
0 0 0 0 0 0 0 0 0 0 0 0 0 0 0 0 1 1 1 0 0 0 1 1 1 1 0 0 0 0 0 0 0 0 0 0 0 0 0 0 0 0 0
0 0 0 0 0 0 0 0 0 0 0 0 0 0 0 0 0 0 0 0 0 0 0 0 0 0 0 0 0 0 0 0 0 0 0 0 0 0 0 0 0 0 0
0 0 0 0 0 0 0 0 0 0 0 0 0 0 0 0 0 0 0 0 0 0 0 0 0 0 0 0 0 0 0 0 0 0 0 0 0 0 0 0 0 0 0
0 0 0 0 0 0 0 0 0 0 0 0 0 0 0 0 0 0 0 0 0 0 0 0 0 0 0 0 0 0 0 0 0 0 0 0 0 0 0 0 0 0 0
0 0 0 0 0 0 0 0 0 0 0 0 0 0 0 0 0 0 0 0 0 0 0 0 0 0 0 0 0 0 0 0 0 0 0 0 0 0 0 0 0 0 0
0 0 0 0 0 0 0 0 0 0 0 0 0 0 0 0 0 0 0 0 0 0 0 0 0 0 0 0 0 0 0 0 0 0 0 0 0 0 0 0 0 0 0
0 0 0 0 0 0 0 0 0 0 0 0 0 0 0 0 0 0 0 0 0 0 0 0 0 0 0 0 0 0 0 0 0 0 0 0 0 0 0 0 0 0 0
Wind_Speed
0 1 1 2 2 2 1 1 1 1 1 0 1 1 1 1 1 1 0 0 1 1 1 1 1 1 1 2 2 1 1 1 0 0 2 2 1 1 2 2 2 2 2
1 1 1 1 1 0 1 2 1 2 1 1 1 1 1 1 1 1 1 1 1 1 2 2 2 2 1 2 1 1 1 1 0 1 0 2 2 2 2 1 2 2 2
1 1 1 0 0 1 1 2 2 2 1 1 0 0 1 1 1 1 1 1 1 2 2 3 2 2 2 2 2 2 3 1 1 1 1 1 2 2 2 2 2 2 2
1 1 1 1 1 2 1 2 2 1 1 0 1 1 1 1 2 1 2 3 2 2 2 3 3 2 2 2 3 2 2 2 1 1 1 2 2 1 2 2 2 3 3
1 1 1 2 2 1 1 2 2 2 1 0 1 1 1 2 1 1 2 2 2 2 2 2 2 2 2 3 2 2 2 2 2 2 1 1 1 1 2 3 3 3 3
1 2 1 1 2 1 1 1 1 2 2 1 0 1 2 1 1 2 2 2 2 2 2 2 2 2 2 2 2 2 2 2 3 2 2 2 2 2 3 3 3 3 3
1 2 2 2 2 2 2 2 1 2 2 1 1 1 2 2 2 2 2 2 2 2 3 2 2 2 2 2 2 2 2 2 3 3 2 3 3 2 2 2 2 2 2
1 2 2 2 3 2 2 2 1 2 2 1 2 2 2 1 2 2 2 2 2 3 3 2 2 2 2 2 1 1 2 2 2 3 3 2 2 2 3 3 2 2 2
2 2 3 3 3 3 2 2 2 2 2 2 2 2 2 2 2 2 2 2 2 2 2 2 2 2 1 1 1 1 2 2 2 2 2 2 2 2 2 3 3 2 2
3 3 3 4 3 3 2 2 1 2 2 2 1 1 2 2 2 1 2 2 2 2 2 2 2 2 1 1 1 1 2 1 1 1 2 2 2 1 1 2 2 3 3
3 3 3 3 3 2 2 1 2 2 2 2 2 2 2 1 1 1 2 2 2 2 2 2 1 1 1 1 1 1 1 1 1 1 1 1 1 1 1 1 2 2 3
3 2 3 2 3 3 3 2 2 2 2 2 1 1 2 1 1 2 2 2 2 2 1 1 1 1 1 1 0 1 1 1 1 2 1 1 1 1 1 1 2 2 3
3 2 2 2 3 3 3 3 2 3 2 1 1 1 2 2 2 2 2 2 2 2 2 1 1 1 1 1 1 1 1 1 1 2 2 2 1 1 1 1 1 1 2
2 2 2 2 3 3 3 3 3 2 1 0 0 1 1 1 2 2 1 1 1 2 2 2 1 1 1 1 1 0 1 1 1 2 2 2 2 2 2 1 2 1 1
3 3 3 3 4 4 3 2 2 2 1 0 0 1 1 1 1 2 2 1 2 2 2 2 2 1 1 1 1 1 0 0 1 1 1 2 1 1 1 1 1 1 1
3 4 4 4 4 4 3 2 2 1 0 0 1 1 1 1 1 1 1 2 2 2 2 2 1 2 1 2 1 1 1 1 0 1 2 2 2 2 2 2 2 2 3
4 4 4 4 4 3 2 2 2 1 0 0 1 1 1 1 1 1 1 2 2 2 2 2 1 1 2 2 2 1 1 1 0 1 1 1 2 2 2 3 4 3 3
3 4 4 4 4 3 2 2 1 0 0 0 1 1 1 1 1 1 2 2 1 1 1 1 1 1 3 3 2 1 1 1 1 1 1 1 3 3 2 2 3 3 3
4 4 3 3 3 3 2 1 1 0 0 1 1 2 1 1 1 1 2 2 1 1 1 1 1 1 3 4 3 1 1 1 2 2 2 2 2 4 3 2 3 4 4
3 3 2 2 2 3 1 0 1 1 1 2 2 2 1 1 2 2 2 1 0 1 1 1 1 1 3 4 3 1 0 1 2 2 3 3 3 3 3 1 2 3 4
3 2 1 2 3 2 1 1 2 3 3 3 2 2 2 2 2 1 1 0 0 1 1 2 2 2 3 4 3 1 1 1 1 2 3 3 5 4 4 2 2 4 4
2 1 1 3 3 2 1 2 4 4 2 2 2 2 2 2 1 1 0 0 0 1 1 2 3 3 3 3 3 3 2 2 1 2 3 3 5 4 4 3 3 4 3
2 1 1 3 3 2 2 3 5 3 2 2 2 2 2 1 1 1 1 1 0 1 2 2 2 3 3 3 3 3 2 2 1 2 4 4 5 4 3 4 4 2 1
2 2 1 2 3 3 3 4 4 2 2 2 2 2 1 1 1 1 1 1 2 2 2 2 3 3 3 3 2 2 1 2 2 2 3 4 4 3 3 4 3 2 1
3 2 2 3 4 4 3 4 3 1 1 2 2 2 2 2 1 2 2 3 4 4 4 3 3 3 3 4 3 2 2 2 2 2 2 2 2 3 3 3 3 2 2
3 3 3 4 4 3 4 3 2 1 1 2 2 2 1 2 2 2 3 3 5 5 6 7 5 4 6 5 4 3 3 2 1 0 1 2 2 3 3 4 4 3 3
Wind_Direction
348 45 39 58 57 27 4 321 331 329 328 281 265 255 250 262 271 265 257 225 216 200 195 237 257 245 230 243 241 231 251 268 264 20 313 306 282 251 241 239 244 250 251
7 9 44 45 55 338 315 310 309 300 294 255 243 225 225 243 240 264 316 296 241 235 222 220 234 230 230 254 243 215 202 243 139 151 76 322 325 307 275 256 242 247 253
227 268 297 287 289 273 284 293 285 289 293 283 298 24 38 356 6 339 320 304 286 260 239 228 229 229 214 227 232 206 193 209 233 170 160 169 256 304 304 278 271 268 254
260 260 262 287 283 272 281 285 283 290 292 263 144 148 167 228 246 258 281 304 300 282 254 235 226 222 219 226 234 206 199 184 215 247 216 202 196 222 296 303 288 276 265
289 282 257 258 280 286 300 294 308 316 310 296 174 168 215 229 267 292 294 299 301 291 276 248 233 233 232 232 229 213 198 191 201 205 204 206 207 200 228 280 294 290 271
322 317 316 313 302 310 313 302 322 324 324 327 284 201 223 241 283 291 284 290 299 300 299 273 248 245 245 241 237 223 211 207 210 212 206 203 209 211 212 245 273 283 289
299 322 320 320 311 308 304 304 325 328 330 334 299 255 235 225 232 251 257 277 292 292 292 287 269 263 260 254 237 226 231 214 211 220 221 219 228 218 211 231 261 274 287
300 291 294 295 292 294 301 304 312 309 315 309 293 285 268 250 251 250 250 259 264 269 280 282 272 259 254 256 237 236 242 225 225 231 224 227 235 221 214 213 222 274 285
301 302 312 306 296 295 287 273 278 297 304 297 299 300 293 280 275 274 272 276 275 276 286 281 273 275 272 263 245 246 254 237 230 233 232 234 242 228 228 219 210 210 257
312 316 313 304 300 295 295 304 289 281 288 296 294 300 298 284 277 288 294 290 289 293 299 305 301 303 297 277 246 252 252 228 241 234 233 244 253 247 240 224 219 212 215
288 298 300 300 307 325 328 314 305 292 290 295 304 317 307 300 303 301 294 297 304 299 285 280 286 295 295 284 247 264 266 239 264 255 217 249 252 245 249 237 225 220 211
287 295 308 326 334 328 320 310 294 278 272 271 293 308 315 337 335 320 316 321 319 316 308 309 310 300 300 289 232 266 282 234 250 267 269 276 261 257 258 241 241 233 223
305 315 323 321 313 307 302 300 287 273 275 267 289 323 338 341 325 316 324 335 334 340 352 352 322 305 304 285 245 221 247 241 246 252 250 258 248 269 277 265 257 258 249
300 308 311 306 297 293 291 294 288 287 279 217 325 326 323 314 310 316 331 334 343 352 346 342 323 319 332 327 283 224 240 279 288 273 258 250 237 246 253 251 250 247 261
307 296 291 292 296 304 306 303 296 297 287 114 305 276 294 319 342 348 336 341 352 337 327 338 347 354 6 329 280 230 217 297 310 309 293 269 258 247 246 244 241 229 241
293 296 297 296 295 296 298 304 301 295 316 144 260 272 307 333 337 326 330 342 335 327 341 344 346 2 354 354 4 110 76 44 5 323 324 330 338 336 329 311 290 248 239
279 285 285 281 283 284 283 283 273 290 128 228 275 283 290 307 299 304 338 326 314 323 333 334 355 355 333 339 348 54 107 101 285 289 312 325 332 341 340 341 337 317 289
270 274 279 291 299 302 302 291 309 1 182 253 284 283 280 283 299 320 323 313 314 317 311 323 334 338 329 332 333 7 70 37 335 300 281 294 316 327 332 333 334 323 310
253 259 261 266 286 293 285 310 350 355 278 271 281 278 263 261 284 297 299 302 317 321 321 324 331 332 320 332 339 2 28 356 326 317 315 306 307 314 331 344 329 322 315
260 264 276 289 288 285 293 293 286 289 262 262 262 265 252 236 251 257 265 269 276 298 323 332 317 306 305 320 330 338 345 319 312 321 319 316 309 311 328 316 303 305 305
259 275 278 278 276 281 259 253 263 258 255 261 267 262 249 236 240 241 240 258 308 346 331 318 316 312 300 307 311 301 200 241 276 299 307 307 317 320 319 301 269 266 279
281 282 288 290 290 279 239 258 266 266 266 265 266 264 260 256 254 232 283 332 342 323 312 316 317 311 305 302 309 305 262 232 229 272 287 295 308 313 313 305 299 294 294
265 277 270 293 303 287 241 249 268 274 264 262 266 266 264 261 243 217 237 284 276 264 281 286 293 299 305 306 308 311 300 277 241 275 294 305 315 319 323 320 320 323 317
255 262 271 284 290 290 270 257 274 276 257 258 269 271 272 286 282 249 229 228 241 245 257 263 272 288 299 301 313 318 306 299 292 304 315 321 326 331 323 324 329 321 299
249 238 237 250 266 278 281 278 281 262 250 261 274 281 270 266 272 268 247 239 242 226 231 247 241 252 277 274 262 263 276 275 277 302 322 332 333 332 326 321 318 315 317
254 260 258 255 261 270 275 279 270 226 213 258 271 267 271 270 265 276 296 271 252 267 254 242 239 245 247 271 277 273 278 285 283 86 309 303 303 302 304 306 308 308 305